Home   Weather   Gibraltar   Past weeks

Flag for Gibraltar Past Weather in Gibraltar, Gibraltar — Yesterday and Last 2 Weeks

Now
63 °F

Passing clouds.


Feels Like: 63 °F
Forecast: 61 / 65 °F
Wind: 12 mph from West

Location: Gibraltar Airport

Current Time: May 1, 2017 at 2:52:13 am

Latest Report: May 1, 2017 at 1:50 am


Visibility: N/A

Pressure: 30.09 "Hg

Humidity: 77%

Dew Point: 55 °F

Location of GibraltarLocation

Past Weather in Gibraltar — Graph

°F

Gibraltar Temperature Yesterday

Maximum temperature yesterday: 68 °F (at 1:50 pm)
Minimum temperature yesterday: 59 °F (at 6:50 am)
Average temperature yesterday: 63 °F

High & Low Weather Summary for the Past Weeks

 TemperatureHumidityPressure
High75 °F (Apr 27, 5:50 pm)100% (Apr 16, 8:50 am)30.18 "Hg (Apr 16, 8:50 am)
Low57 °F (Apr 25, 6:50 am)43% (Apr 30, 1:50 pm)29.77 "Hg (Apr 27, 4:50 pm)
Average63 °F79%29.99 "Hg
* Reported Apr 16 12:50 am — May 1 12:50 am, Gibraltar, Weather by CustomWeather, © 2017

Note: Actual official high and low records may vary slightly from our data, if they occured in-between our weather recording intervals... More about our weather records

Advertising

Gibraltar Weather History for the Previous 24 Hours

Scroll right to see more
 ConditionsComfort  
Time TempWeatherWind HumidityBarometerVisibility
12:50 am
Mon, May 1
64 °FPassing clouds.9 mph73%30.09 "HgN/A
11:50 pm
Sun, Apr 30
64 °FOvercast.14 mph68%30.09 "HgN/A
10:50 pm64 °FOvercast.15 mph64%30.07 "HgN/A
9:50 pm64 °FPartly cloudy.16 mph68%30.07 "HgN/A
8:50 pm64 °FBroken clouds.15 mph64%30.04 "HgN/A
7:50 pm66 °FPartly sunny.18 mph56%30.04 "HgN/A
6:50 pm66 °FScattered clouds.16 mph56%30.04 "HgN/A
5:50 pm66 °FScattered clouds.20 mph52%30.04 "HgN/A
4:50 pm66 °FScattered clouds.20 mph52%30.04 "HgN/A
3:50 pm66 °FScattered clouds.20 mph46%30.04 "HgN/A
2:50 pm68 °FPassing clouds.17 mph43%30.04 "HgN/A
1:50 pm68 °FSunny.23 mph43%30.04 "HgN/A
12:50 pm66 °FPassing clouds.18 mph49%30.07 "HgN/A
11:50 am64 °FPassing clouds.16 mph52%30.07 "HgN/A
10:50 am63 °FPassing clouds.13 mph59%30.04 "HgN/A
9:50 am59 °FPassing clouds.10 mph68%30.04 "HgN/A
8:50 am59 °FPassing clouds.14 mph72%30.04 "HgN/A
7:50 am59 °FPassing clouds.15 mph72%30.04 "HgN/A
6:50 am59 °FPassing clouds.14 mph77%30.01 "HgN/A
5:50 am61 °FPassing clouds.16 mph72%30.01 "HgN/A
4:50 am61 °FPassing clouds.13 mph77%30.01 "HgN/A
3:50 am61 °FPassing clouds.7 mph88%29.98 "HgN/A
2:50 am61 °FPartly cloudy.2 mph94%30.01 "Hg6 mi
Weather by CustomWeather, © 2017

See weather overviewHow to use our weather pages